Location: الشقيري
(17.1356°N, 42.8272°E)
Time: 15:24:54
(UTC+00:00)

N. Korean satellite - Pass Details

Date: 17 November 2019
Orbit: 455 x 507 km, 97.2° (Epoch: 13 December)

Event Time Altitude Azimuth Distance (km) Brightness Sun altitude
Rises 02:23:44 0° 22° (NNE) 2,584 10.3 -12.3°
Reaches altitude 10° 02:25:56 10° 31° (NNE) 1,693 9.5 -11.8°
Maximum altitude 02:29:19 36° 99° (E) 790 8.4 -11.0°
Drops below altitude 10° 02:32:38 10° 167° (SSE) 1,664 9.7 -10.2°
Sets 02:34:47 0° 176° (S) 2,533 10.5 -9.7°
